Tracking 20626 objects as of 8-Apr-2020
HD Live streaming from Space Station
objects crossing your sky now

SATCOM 3 DEB

Track SATCOM 3 DEB now!


NORAD ID: 31138
Int'l Code: 1979-101H
Perigee: 8,123.5 km
Apogee: 35,591.6 km
Inclination: 8.5 °
Period: 786.7 minutes
Semi major axis: 28228 km
RCS: 0.0839 m2 (small)
Launch date: December 7, 1979
Source: United States (US)
Launch site: AIR FORCE EASTERN TEST RANGE (AFETR)

Note: This is SATELLITE DEBRIS
aabbcc
Your satellite tracking list
Your tracking list is empty




NASA's NSSDC Master Catalog

Two Line Element Set (TLE):
1 31138U 79101H   20099.44652894 -.00000165  00000-0  00000+0 0  9998
2 31138   8.5263 285.6861 4865301  87.8387 287.1074  1.83050321 89319
Source of the keplerian elements: AFSPC